Location: Saint-Palais-sur-Mer
(45.6429°N, 1.0859°W)
Time: 06:20:53
(UTC+02:00)

MOZHAYETS 4 - Visible Passes

Search period start: 16 April 2024 00:00
Search period end: 26 April 2024 00:00
Orbit: 654 x 670 km, 98.3° (Epoch: 15 April)

Date Brightness Start Highest point End Pass type
(mag) Time Alt. Az. Time Alt. Az. Time Alt. Az.
16 Apr 8.3 04:54:49 10° SSE 04:59:18 56° ENE 05:03:48 10° N visible
16 Apr 9.2 06:33:35 10° SW 06:36:34 17° W 06:39:33 10° NW visible
17 Apr 10.6 03:50:45 10° E 03:53:14 15° ENE 03:55:44 10° NNE visible
17 Apr 7.6 05:25:11 11° S 05:29:34 75° WSW 05:34:11 10° NNW visible
18 Apr 9.8 04:19:25 10° ESE 04:23:12 26° ENE 04:27:00 10° N visible
18 Apr 8.2 05:55:42 10° SSW 05:59:57 37° W 06:04:14 10° NNW visible
19 Apr 8.6 04:48:54 10° SE 04:53:18 48° ENE 04:57:44 10° N visible
19 Apr 9.1 06:27:10 10° SW 06:30:28 19° W 06:33:48 10° NW visible
20 Apr 10.7 03:45:15 10° E 03:47:17 13° ENE 03:49:18 10° NNE visible
20 Apr 7.6 05:18:56 10° SSE 05:23:31 86° W 05:28:09 10° NNW visible
21 Apr 10.0 04:13:37 10° ESE 04:17:12 23° ENE 04:20:48 10° NNE visible
21 Apr 8.1 05:49:30 10° S 05:53:52 43° W 05:58:16 10° NNW visible
22 Apr 8.9 04:42:57 10° SE 04:47:16 42° ENE 04:51:36 10° N visible
22 Apr 8.9 06:20:46 10° SW 06:24:20 22° W 06:27:57 10° NW visible
23 Apr 10.8 03:39:54 10° ENE 03:41:17 11° ENE 03:42:41 10° NE visible
23 Apr 7.8 05:12:51 10° SSE 05:17:26 83° ENE 05:22:04 10° NNW visible
24 Apr 10.2 04:07:49 10° ESE 04:11:10 20° ENE 04:14:32 10° NNE visible
24 Apr 7.9 05:43:17 10° S 05:47:44 50° W 05:52:14 10° NNW visible
25 Apr 9.2 04:36:59 10° SE 04:41:11 37° ENE 04:45:24 10° N visible
25 Apr 8.8 06:14:21 10° SSW 06:18:10 26° W 06:22:00 10° NW visible
